Monticello, KY

2:59 AM EST on December 13, 2017 (GMT -0500)
Wayne County

Weather History for KEKQ - November, 2012

Change the Weather History Date:

Sunday, November 11, 2012

  Actual Average Record
Temperature  
Mean Temperature 52 °F -  
Max Temperature 70 °F 56 °F 76 °F (1985)
Min Temperature 34 °F 35 °F 16 °F (1957)
Degree Days  
Heating Degree Days 13    
Growing Degree Days 2 (Base 50)    
Moisture  
Dew Point 41 °F    
Average Humidity 56    
Maximum Humidity 92    
Minimum Humidity 36    
Precipitation  
Precipitation 0.00 in - - ()
Sea Level Pressure  
Sea Level Pressure 30.27 in    
Wind  
Wind Speed 8 mph (SSE)    
Max Wind Speed 22 mph    
Max Gust Speed 33 mph    
Visibility 10 miles    
Events      
Averages and records for this station are not official NWS values.
T = Trace of Precipitation, MM = Missing Value Source: NWS Daily Summary

Daily Weather History Graph

Daily Weather History Graph

Search for Another Location

Airport or City:

Trip Planner

Search our weather history database for the weather conditions in past years. The results will help you decide how hot, cold, wet, or windy it might be!

Date:

Astronomy

Nov. 11, 2012 Rise Set
Actual Time 6:14 AM CST 4:32 PM CST
Civil Twilight 5:46 AM CST 5:00 PM CST
Nautical Twilight 5:15 AM CST 5:31 PM CST
Astronomical Twilight 4:44 AM CST 6:01 PM CST
Moon 3:30 AM CST (11/11) 2:53 PM CST (11/11)
Length of Visible Light 11h 13m
Length of Day
10h 18m
Waning Crescent, 7% of the Moon is Illuminated
Nov 11
Waning Crescent
Nov 13
New
Nov 20
First Quarter
Nov 28
Full
Dec 6
Last Quarter

Hourly Weather History & Observations

Time (CST) Temp. Dew Point Humidity Pressure Visibility Wind Dir Wind Speed Gust Speed Precip Events Conditions
12:56 AM 34.9 °F 31.1 °F 86% 30.29 in 10.0 mi Calm Calm - N/A   Clear
1:56 AM 41.9 °F 34.0 °F 73% 30.27 in 10.0 mi Calm Calm - N/A   Clear
2:56 AM 52.9 °F 36.0 °F 53% 30.27 in 10.0 mi SSW 5.8 mph - N/A   Clear
3:56 AM 50.0 °F 36.0 °F 59% 30.29 in 10.0 mi SSE 3.5 mph - N/A   Clear
4:56 AM 41.9 °F 34.9 °F 76% 30.33 in 10.0 mi Calm Calm - N/A   Clear
5:56 AM 34.9 °F 32.9 °F 92% 30.35 in 10.0 mi Calm Calm - N/A   Clear
6:56 AM 36.9 °F 34.0 °F 89% 30.36 in 10.0 mi Calm Calm - N/A   Clear
7:56 AM 57.9 °F 37.9 °F 47% 30.36 in 10.0 mi SE 9.2 mph - N/A   Clear
8:56 AM 61.9 °F 36.9 °F 39% 30.36 in 10.0 mi South 12.7 mph - N/A   Clear
9:56 AM 65.8 °F 37.9 °F 36% 30.35 in 10.0 mi SSE 15.0 mph - N/A   Clear
10:56 AM 66.9 °F 38.8 °F 36% 30.33 in 10.0 mi South 18.4 mph - N/A   Clear
11:56 AM 68.9 °F 41.0 °F 36% 30.29 in 10.0 mi SSE 13.8 mph - N/A   Clear
12:56 PM 70.0 °F 41.9 °F 36% 30.27 in 10.0 mi South 19.6 mph - N/A   Clear
1:56 PM 66.9 °F 41.9 °F 40% 30.25 in 10.0 mi South 16.1 mph - N/A   Clear
2:56 PM 68.0 °F 45.0 °F 43% 30.23 in 10.0 mi SSE 9.2 mph - N/A   Clear
3:56 PM 66.9 °F 45.9 °F 47% 30.21 in 10.0 mi SSE 13.8 mph - N/A   Clear
4:56 PM 64.9 °F 46.9 °F 52% 30.24 in 10.0 mi South 21.9 mph - N/A   Clear
5:56 PM 63.9 °F 46.9 °F 54% 30.25 in 10.0 mi South 13.8 mph - N/A   Clear
6:56 PM 61.9 °F 46.9 °F 58% 30.25 in 10.0 mi South 17.3 mph - N/A   Clear
7:56 PM 63.0 °F 46.9 °F 56% 30.23 in 10.0 mi SSE 17.3 mph - N/A   Clear
8:56 PM 61.9 °F 47.8 °F 60% 30.21 in 10.0 mi SSE 16.1 mph - N/A   Clear
9:56 PM 61.9 °F 47.8 °F 60% 30.19 in 10.0 mi SSE 16.1 mph - N/A   Clear
10:56 PM 63.0 °F 48.9 °F 60% 30.16 in 10.0 mi SSE 18.4 mph 25.3 mph N/A   Clear
11:56 PM 64.9 °F 50.0 °F 58% 30.15 in 10.0 mi SSE 20.7 mph 33.4 mph N/A   Clear